[[{"header":{"parameterUnit":"m.s-1","parameterCategory":2,"la1":30.2991,"la2":30.254,"lo1":-89.0895,"lo2":-89.0444,"dy":0.0017,"dx":0.0017,"nx":28,"ny":28,"refTime":"2023-06-19T21:00:00:Z","depth":"0","parameterNumber":2,"parameterNumberName":"U-component_of_CURRENTS"},"data":[0,0,0,0,0,0,0,0,0,0,0,0,0,0,0,0,0,0,0,0,0,0,0,0,0,0,0,0,0,0,0,0,0,0,0,0,0,0,0,0,0,0,0,0,0,0,0,0,0,0,0,0,0,0,0,0,0,0,0.5343,0.5346,0,0.5662,0.5666,0.567,0.5784,0.5783,0.5782,0.578,0.5597,0.5593,0.5589,0,0,0,0,0,0,0,0,0,0,0,0,0,0.5103,0.5105,0.5343,0.5347,0.5351,0.5662,0.5666,0.567,0.5784,0.5783,0.5781,0.578,0.5598,0.5593,0.5589,0,0,0,0,0,0,0,0,0,0,0,0,0,0.5293,0.5106,0.5342,0.5445,0.5457,0.5661,0.5666,0.5672,0.5784,0.5783,0.5781,0.5779,0.5599,0.5594,0.5588,0.5588,0,0,0.5571,0.5568,0,0,0,0,0,0,0,0,0.5281,0.5301,0.5426,0.5438,0.5452,0.5681,0.5515,0.5619,0.5785,0.566,0.578,0.5778,0.5579,0.5575,0.5647,0.558,0.5572,0.557,0.5567,0.5564,0.5563,0,0,0,0,0,0,0,0.5268,0.529,0.547,0.543,0.5446,0.5568,0.559,0.5539,0.5616,0.5671,0.568,0.5716,0.5582,0.5653,0.5642,0.5569,0.557,0.5565,0.5562,0.556,0.529,0.5287,0,0,0,0,0,0,0.5216,0.5276,0.5459,0.5479,0.536,0.5572,0.5598,0.561,0.5629,0.5634,0.5717,0.572,0.5663,0.5649,0.5635,0.5563,0.5564,0.5559,0.5556,0.5294,0.5289,0.5285,0,0,0,0,0,0,0.5209,0.5228,0.5447,0.5386,0.5422,0.5576,0.559,0.5617,0.5689,0.5669,0.5664,0.576,0.5661,0.5643,0.5611,0.5558,0.5557,0.5551,0.5298,0.5293,0.5287,0.5462,0,0,0,0,0,0,0.52,0.5223,0.5227,0.5381,0.5424,0.557,0.5593,0.5624,0.5713,0.572,0.5703,0.5687,0.5659,0.5621,0.5606,0.555,0.5547,0.5303,0.5296,0.5289,0.5461,0.5463,0.5465,0,0,0,0,0,0.519,0.5201,0.5225,0.5249,0.5418,0.5572,0.5606,0.5711,0.5716,0.5764,0.5754,0.5687,0.5559,0.5618,0.56,0.5541,0.5307,0.5298,0.529,0.546,0.5463,0.5465,0,0,0,0,0,0,0.5124,0.5219,0.5247,0.5292,0.542,0.559,0.5646,0.5713,0.5761,0.5742,0.5709,0.5694,0.5642,0.5548,0.5612,0.5422,0.5391,0.5379,0.5526,0.5527,0.5529,0.5559,0.5542,0,0,0,0,0,0.5102,0.5117,0.5257,0.5297,0.5349,0.5494,0.557,0.5645,0.5711,0.5737,0.5745,0.5671,0.5596,0.5536,0.549,0.5409,0.5435,0.5323,0.5326,0.5329,0.5329,0.5361,0.5371,0.5258,0.5258,0.5258,0,0,0.5088,0.5145,0.5155,0.5282,0.538,0.5482,0.5535,0.5649,0.5708,0.5691,0.5754,0.572,0.5586,0.5531,0.5481,0.5441,0.5385,0.5318,0.5324,0.5321,0.5354,0.5367,0.5378,0.5252,0.5253,0.5254,0,0,0.5092,0.5115,0.5144,0.5246,0.5388,0.5474,0.55,0.5675,0.5713,0.5793,0.5749,0.571,0.5644,0.5553,0.5476,0.5434,0.5432,0.5352,0.536,0.5393,0.5406,0.5418,0.5558,0.558,0.5311,0.5311,0.5311,0,0.5076,0.5133,0.519,0.5275,0.5337,0.546,0.5531,0.5611,0.5761,0.5727,0.5807,0.5717,0.5653,0.5492,0.5498,0.5446,0.5507,0.5392,0.5412,0.5422,0.5431,0.5571,0.5594,0.5319,0.5318,0.5317,0.5316,0,0.5132,0.5188,0.5222,0.5331,0.5399,0.5494,0.5587,0.5637,0.57,0.5756,0.5712,0.5725,0.5633,0.5591,0.5557,0.5494,0.5543,0.547,0.5449,0.5457,0.56,0.5621,0.5329,0.5327,0.5324,0.5323,0,0,0.5104,0.5224,0.5244,0.5248,0.5429,0.5454,0.5516,0.555,0.5542,0.5667,0.5671,0.5597,0.5616,0.5529,0.5474,0.5509,0.5694,0.5527,0.5526,0.5745,0.5876,0.5977,0.601,0.5652,0.5654,0.5655,0.5991,0,0.515,0.5239,0.5292,0.5344,0.5399,0.5447,0.5484,0.55,0.5572,0.5626,0.5579,0.5604,0.5572,0.5586,0.5603,0.5682,0.5739,0.5616,0.5762,0.5768,0.592,0.6031,0.6132,0.6442,0.6011,0.6015,0.6017,0,0.5217,0.5261,0.5321,0.5289,0.53,0.5331,0.5306,0.536,0.5412,0.5481,0.5492,0.5546,0.558,0.5618,0.5751,0.5689,0.5784,0.5873,0.5885,0.5922,0.5904,0.6331,0.6496,0.6668,0.6049,0.6047,0.6044,0,0.5164,0.5235,0.5233,0.5267,0.5316,0.5253,0.5243,0.5291,0.5319,0.5426,0.5568,0.555,0.5687,0.5754,0.5954,0.5871,0.6213,0.6087,0.6259,0.6272,0.6351,0.6365,0.6753,0.6187,0.6186,0.6185,0.6184,0,0.5198,0.518,0.5188,0.5206,0.5124,0.5168,0.5126,0.5139,0.5272,0.5338,0.5492,0.5657,0.575,0.5954,0.603,0.6285,0.6257,0.6326,0.636,0.6418,0.6433,0.6569,0.6486,0.6198,0.6195,0.6193,0.619,0,0.5181,0.5206,0.5188,0.517,0.5123,0.5066,0.5052,0.5039,0.5254,0.5408,0.5483,0.5786,0.6076,0.6221,0.6428,0.6455,0.6555,0.6699,0.6832,0.6873,0.7098,0.7012,0.6579,0.6472,0.6924,0.6928,0.6932,0,0.5162,0.5197,0.5146,0.503,0.5003,0.4936,0.4885,0.5008,0.5078,0.5494,0.5582,0.597,0.6194,0.664,0.6816,0.7027,0.6764,0.7207,0.6992,0.7201,0.713,0.6435,0.6323,0.7222,0.7227,0.7232,0.7236,0,0.5142,0.5155,0.5099,0.4928,0.4802,0.475,0.4724,0.4807,0.5035,0.5279,0.5614,0.5853,0.642,0.677,0.7155,0.7245,0.701,0.7305,0.7469,0.7368,0.6677,0.657,0.6983,0.7278,0.7274,0.7271,0.7268,0.7267,0.505,0.4987,0.4881,0.4689,0.4586,0.4536,0.448,0.4597,0.4772,0.5111,0.5454,0.5902,0.6742,0.7318,0.7381,0.7858,0.7249,0.786,0.7751,0.7033,0.6849,0.7407,0.7732,0.7731,0.7729,0.7728,0.7727,0,0.4827,0.4739,0.4569,0.4358,0.4246,0.4273,0.4309,0.4324,0.4493,0.5024,0.5312,0.6322,0.6974,0.7611,0.8404,0.8436,0.7832,0.8354,0.7548,0.7432,0.8067,0.8033,0.8501,0.8501,0.8501,0.8501,0.85,0.85,0.4617,0.4414,0.4332,0.405,0.3952,0.3827,0.3845,0.3961,0.433,0.4962,0.5582,0.6042,0.7249,0.8424,0.8999,0.8873,0.8343,0.7923,0.7734,0.8536,0.8482,0.8431,0.8397,0.8933,0.8933,0.69,0.6888,0.6879]},{"header":{"parameterUnit":"m.s-1","parameterCategory":2,"la1":30.2991,"la2":30.254,"lo1":-89.0895,"lo2":-89.0444,"dy":0.0017,"dx":0.0017,"nx":28,"ny":28,"refTime":"2023-06-19T21:00:00:Z","depth":"0","parameterNumber":3,"parameterNumberName":"V-component_of_CURRENTS"},"data":[0,0,0,0,0,0,0,0,0,0,0,0,0,0,0,0,0,0,0,0,0,0,0,0,0,0,0,0,0,0,0,0,0,0,0,0,0,0,0,0,0,0,0,0,0,0,0,0,0,0,0,0,0,0,0,0,0,0,0.0665,0.0665,0,0.0614,0.0613,0.0612,0.0543,0.0542,0.0541,0.0541,0.0299,0.0294,0.0288,0,0,0,0,0,0,0,0,0,0,0,0,0,0.0631,0.0633,0.0665,0.0665,0.0664,0.0614,0.0613,0.0612,0.0543,0.0542,0.0541,0.054,0.0301,0.0294,0.0288,0,0,0,0,0,0,0,0,0,0,0,0,0,0.0618,0.0633,0.0665,0.0626,0.0622,0.0614,0.0613,0.0612,0.0544,0.0542,0.0541,0.054,0.0303,0.0295,0.0287,0.0263,0,0,0.0261,0.0258,0,0,0,0,0,0,0,0,0.0619,0.0619,0.0632,0.0629,0.0624,0.0586,0.0513,0.0487,0.0544,0.0571,0.0541,0.0539,0.038,0.0365,0.0358,0.0252,0.0241,0.026,0.0255,0.0252,0.0249,0,0,0,0,0,0,0,0.062,0.062,0.0642,0.0632,0.0627,0.0586,0.0583,0.0508,0.0478,0.0568,0.0564,0.0563,0.0376,0.0366,0.0351,0.0238,0.0261,0.0253,0.0248,0.0245,0.0004,0.0002,0,0,0,0,0,0,0.0637,0.0622,0.0644,0.0641,0.0621,0.0588,0.0585,0.0598,0.0483,0.0467,0.0564,0.056,0.0381,0.0361,0.0342,0.0274,0.0252,0.0244,0.0239,0.0005,0.0003,0.0002,0,0,0,0,0,0,0.0637,0.064,0.0646,0.0631,0.0629,0.0591,0.0606,0.0597,0.0592,0.0482,0.0461,0.0567,0.0379,0.0354,0.0281,0.0265,0.024,0.0233,0.0007,0.0005,0.0003,0.0158,0,0,0,0,0,0,0.0636,0.0641,0.0652,0.0633,0.0631,0.066,0.0607,0.0597,0.0594,0.0588,0.0478,0.0454,0.0376,0.0294,0.0273,0.0253,0.0226,0.0009,0.0006,0.0003,0.0155,0.0162,0.0167,0,0,0,0,0,0.0635,0.0671,0.0653,0.0655,0.065,0.0662,0.0658,0.0623,0.0596,0.0609,0.0525,0.0458,0.026,0.0288,0.0263,0.024,0.001,0.0007,0.0004,0.0152,0.016,0.0167,0,0,0,0,0,0,0.067,0.0667,0.0647,0.0681,0.0676,0.0652,0.066,0.0637,0.0587,0.0572,0.0462,0.0434,0.0355,0.0275,0.0308,0.0155,0.0114,0.0106,0.0235,0.0242,0.0248,0.0295,0.0219,0,0,0,0,0,0.0682,0.0702,0.0693,0.0718,0.072,0.0691,0.0689,0.0673,0.0629,0.0608,0.0536,0.0429,0.0323,0.0271,0.0179,0.0115,0.0061,0.0071,0.0078,0.0084,0.01,0.0023,0.0026,-0.0008,-0.0008,-0.0008,0,0,0.0703,0.0703,0.0714,0.0725,0.0714,0.0743,0.0687,0.0702,0.0707,0.0585,0.0563,0.046,0.0311,0.0234,0.0189,0.0167,0.0064,0.008,0.0088,0.0099,0.0021,0.0025,0.0028,-0.001,-0.001,-0.001,0,0,0.0768,0.0755,0.0798,0.0808,0.081,0.0788,0.08,0.0787,0.0756,0.0731,0.0617,0.052,0.0397,0.0283,0.0203,0.0186,0.0105,0.0137,0.0207,0.0133,0.0137,0.014,0.009,0.0087,0.0137,0.0137,0.0137,0,0.0791,0.0849,0.0812,0.0863,0.0874,0.0818,0.0868,0.0836,0.08,0.0758,0.0742,0.053,0.0417,0.0276,0.0267,0.0203,0.0163,0.0202,0.0149,0.015,0.015,0.0098,0.0093,0.0144,0.0143,0.0143,0.0142,0,0.0895,0.0942,0.0972,0.1006,0.1003,0.1047,0.0998,0.0974,0.0926,0.0884,0.077,0.0632,0.05,0.0432,0.0348,0.026,0.0233,0.0179,0.0151,0.0164,0.0107,0.0099,0.0154,0.0152,0.015,0.0148,0,0,0.0971,0.1033,0.1048,0.1073,0.1088,0.109,0.1075,0.1032,0.1012,0.0939,0.0902,0.0709,0.0638,0.0541,0.0409,0.0339,0.0303,0.0277,0.027,0.0267,0.0169,0.0183,0.0174,0.0255,0.0254,0.0253,0.0136,0,0.1073,0.1192,0.1178,0.1257,0.1315,0.1234,0.1222,0.1157,0.1098,0.1051,0.0873,0.0802,0.0673,0.0624,0.0526,0.036,0.0287,0.0341,0.0121,0.0115,0.0158,0.0167,0.0354,0.0269,0.0128,0.0127,0.0125,0,0.1191,0.1259,0.1371,0.1375,0.1382,0.1401,0.1337,0.132,0.1212,0.1169,0.106,0.095,0.08,0.0722,0.0462,0.0511,0.0357,0.0237,0.0228,0.0185,0.0114,0.0222,0.0258,-0.003,0.0112,0.0113,0.0114,0,0.1275,0.1369,0.1451,0.1476,0.149,0.1473,0.1444,0.1362,0.136,0.1266,0.1296,0.1068,0.1014,0.078,0.0532,0.0501,0.0289,0.02,0.006,0.0059,0.0145,0.0154,-0.0088,0.0032,0.0033,0.0033,0.0033,0,0.1389,0.145,0.1503,0.1561,0.1614,0.1569,0.1593,0.1531,0.1509,0.1563,0.1383,0.1409,0.104,0.0875,0.06,0.0334,0.0331,0.0087,0.0032,0.0202,0.0217,-0.0092,-0.0308,0.0029,0.003,0.003,0.0031,0,0.1471,0.1514,0.1625,0.1673,0.1673,0.1714,0.1724,0.1743,0.1731,0.1815,0.1816,0.1669,0.1468,0.1104,0.0736,0.0467,0.0022,0.0078,0.0317,0.0291,-0.0131,-0.0344,-0.0652,-0.0872,-0.011,-0.011,-0.0111,0,0.1508,0.1593,0.1723,0.1759,0.1786,0.1834,0.186,0.1856,0.194,0.2006,0.2087,0.1931,0.1887,0.1353,0.0855,0.0384,0.0037,0.0203,0.0146,-0.0117,-0.0398,-0.0529,-0.0704,0.0319,0.0322,0.0325,0.0327,0,0.159,0.166,0.1764,0.1874,0.1931,0.203,0.211,0.2234,0.2289,0.2415,0.2561,0.254,0.2082,0.1737,0.1079,0.0703,0.0016,0.0239,-0.0093,-0.0129,-0.0227,-0.0472,0.0351,0.0351,0.0349,0.0347,0.0346,0.0345,0.1641,0.1743,0.1871,0.1964,0.2061,0.224,0.2388,0.2535,0.2759,0.3053,0.2972,0.3199,0.2762,0.191,0.1144,0.0223,0.0109,0.0042,-0.0206,-0.0322,-0.0506,0.0374,0.0338,0.0336,0.0334,0.0332,0.0331,0,0.1692,0.1792,0.189,0.2075,0.2232,0.2269,0.2548,0.2786,0.3131,0.3537,0.3709,0.4065,0.3165,0.2262,0.1005,0.0079,-0.0366,-0.0398,-0.0538,-0.0721,0.0059,0.0109,0.0098,0.0098,0.0098,0.0099,0.0099,0.0099,0.1697,0.1831,0.1901,0.217,0.232,0.2637,0.2854,0.3229,0.3671,0.4466,0.5047,0.5366,0.5367,0.2407,0.0424,-0.0253,-0.1034,-0.1105,-0.1598,-0.1024,-0.1001,-0.0979,-0.098,-0.1219,-0.1221,-0.2175,-0.2185,-0.2192]}],[{"header":{"parameterUnit":"m.s-1","parameterCategory":2,"la1":30.2991,"la2":30.254,"lo1":-89.0895,"lo2":-89.0444,"dy":0.0017,"dx":0.0017,"nx":28,"ny":28,"refTime":"2023-06-19T21:00:00:Z","depth":"2","parameterNumber":2,"parameterNumberName":"U-component_of_CURRENTS"},"data":[0,0,0,0,0,0,0,0,0,0,0,0,0,0,0,0,0,0,0,0,0,0,0,0,0,0,0,0,0,0,0,0,0,0,0,0,0,0,0,0,0,0,0,0,0,0,0,0,0,0,0,0,0,0,0,0,0,0,0.5243,0.5246,0,0.5548,0.5552,0.5555,0.5675,0.5674,0.5673,0.5672,0.5523,0.552,0.5517,0,0,0,0,0,0,0,0,0,0,0,0,0,0.5034,0.5035,0.5243,0.5247,0.525,0.5547,0.5552,0.5556,0.5675,0.5674,0.5673,0.5672,0.5524,0.552,0.5517,0,0,0,0,0,0,0,0,0,0,0,0,0,0.5211,0.5036,0.5242,0.5344,0.5356,0.5547,0.5552,0.5557,0.5676,0.5674,0.5673,0.5671,0.5525,0.5521,0.5516,0.5518,0,0,0.5502,0.55,0,0,0,0,0,0,0,0,0.5201,0.5219,0.5326,0.5337,0.5351,0.557,0.5424,0.5521,0.5676,0.5557,0.5672,0.5671,0.5496,0.5494,0.5564,0.5511,0.5504,0.5502,0.5499,0.5497,0.5496,0,0,0,0,0,0,0,0.5188,0.5208,0.5366,0.5329,0.5345,0.5467,0.5488,0.5446,0.5524,0.5567,0.5576,0.5607,0.55,0.5569,0.556,0.5502,0.5502,0.5498,0.5495,0.5493,0.524,0.5236,0,0,0,0,0,0,0.5134,0.5195,0.5356,0.5375,0.5269,0.547,0.5495,0.5503,0.5535,0.5542,0.5608,0.5611,0.5577,0.5565,0.5554,0.55,0.5497,0.5493,0.549,0.5244,0.5239,0.5234,0,0,0,0,0,0,0.5128,0.5144,0.5344,0.5292,0.5325,0.5473,0.5484,0.551,0.5582,0.5571,0.5568,0.5652,0.5576,0.5561,0.5548,0.5495,0.5491,0.5486,0.5248,0.5242,0.5237,0.5423,0,0,0,0,0,0,0.512,0.514,0.5144,0.5287,0.5326,0.5461,0.5486,0.5517,0.5602,0.561,0.5607,0.5594,0.5573,0.5556,0.5544,0.5489,0.5483,0.5253,0.5246,0.5239,0.5422,0.5425,0.5427,0,0,0,0,0,0.5111,0.5122,0.5142,0.5163,0.532,0.5463,0.5496,0.5598,0.5605,0.5654,0.5659,0.5594,0.5493,0.5555,0.554,0.5481,0.5257,0.5248,0.5239,0.5421,0.5424,0.5427,0,0,0,0,0,0,0.506,0.514,0.5164,0.5204,0.5322,0.5482,0.5538,0.56,0.5659,0.5644,0.5622,0.5611,0.5573,0.548,0.5547,0.5364,0.533,0.5318,0.5472,0.5474,0.5476,0.5501,0.5479,0,0,0,0,0,0.504,0.5051,0.5175,0.5212,0.5259,0.5395,0.5467,0.5539,0.5608,0.5638,0.5655,0.559,0.5525,0.5472,0.5435,0.5363,0.5386,0.5275,0.5278,0.5282,0.5278,0.5304,0.5314,0.5205,0.5205,0.5205,0,0,0.503,0.5078,0.5087,0.52,0.5291,0.5389,0.5436,0.5544,0.5605,0.5596,0.5672,0.5644,0.5518,0.5475,0.543,0.5387,0.5337,0.527,0.5276,0.527,0.5297,0.531,0.5321,0.5199,0.52,0.5201,0,0,0.5039,0.5056,0.5083,0.5178,0.5307,0.5389,0.5412,0.5578,0.5618,0.5707,0.5669,0.5638,0.5586,0.5499,0.5427,0.539,0.5387,0.5306,0.5312,0.534,0.5353,0.5364,0.551,0.5533,0.5263,0.5263,0.5263,0,0.503,0.5081,0.5127,0.5207,0.5266,0.5378,0.5446,0.5527,0.5676,0.5642,0.5729,0.5651,0.5596,0.5444,0.5452,0.5404,0.5463,0.5346,0.536,0.537,0.5379,0.5524,0.5547,0.5271,0.527,0.5269,0.5269,0,0.5087,0.5139,0.5172,0.5273,0.5337,0.5428,0.5516,0.5566,0.5631,0.5683,0.5646,0.5671,0.5582,0.5542,0.5515,0.545,0.55,0.5422,0.5399,0.5404,0.5554,0.5575,0.5282,0.5279,0.5277,0.5275,0,0,0.5067,0.5177,0.5196,0.5196,0.5371,0.539,0.5459,0.5487,0.5474,0.5607,0.561,0.5552,0.5565,0.5481,0.543,0.5463,0.565,0.5478,0.5476,0.5706,0.5827,0.5926,0.5959,0.5601,0.5603,0.5604,0.5952,0,0.5115,0.5199,0.5248,0.5298,0.535,0.5393,0.5436,0.5447,0.5513,0.5564,0.5524,0.5551,0.5525,0.5539,0.5555,0.5636,0.5693,0.5569,0.571,0.5716,0.587,0.5979,0.5226,0.5474,0.5972,0.5975,0.5978,0,0.5183,0.5222,0.5281,0.5244,0.5253,0.5284,0.5252,0.5309,0.5354,0.5421,0.5429,0.5482,0.5521,0.5561,0.5699,0.5635,0.5732,0.5824,0.5836,0.5865,0.5849,0.5513,0.5493,0.6012,0.601,0.6007,0.6005,0,0.5134,0.5198,0.5195,0.5227,0.5271,0.5208,0.5198,0.5237,0.5262,0.5361,0.5494,0.5481,0.5623,0.569,0.5897,0.5813,0.6159,0.6032,0.6207,0.622,0.5567,0.552,0.613,0.613,0.6129,0.6128,0.6127,0,0.5169,0.5149,0.515,0.5165,0.5079,0.5123,0.5067,0.5083,0.521,0.5269,0.5415,0.5543,0.5683,0.5888,0.597,0.623,0.62,0.6273,0.6308,0.5621,0.5576,0.5975,0.5953,0.6141,0.6138,0.6135,0.6133,0,0.5154,0.5177,0.5154,0.5131,0.5078,0.5019,0.4988,0.4967,0.5177,0.5322,0.5399,0.566,0.5954,0.6151,0.6367,0.6397,0.6575,0.6647,0.5933,0.5879,0.6603,0.6584,0.6865,0.6871,0.6876,0.688,0.6884,0,0.5136,0.517,0.511,0.4986,0.4955,0.4874,0.4816,0.4935,0.5001,0.5367,0.5455,0.5833,0.6041,0.6506,0.642,0.6613,0.682,0.627,0.5934,0.6669,0.6675,0.6647,0.6622,0.5164,0.5153,0.5145,0.5138,0,0.5117,0.5128,0.507,0.4884,0.4748,0.4678,0.4646,0.4722,0.4951,0.518,0.5473,0.5684,0.6001,0.5868,0.6222,0.6185,0.6171,0.6118,0.6983,0.5155,0.5108,0.5102,0.5122,0.5059,0.5067,0.5073,0.5077,0.508,0.5026,0.4959,0.4848,0.4645,0.4529,0.4464,0.4393,0.4491,0.4653,0.4909,0.5187,0.5328,0.545,0.551,0.5428,0.5345,0.5787,0.5647,0.5652,0.5671,0.5471,0.5442,0.5425,0.5435,0.5443,0.545,0.5457,0,0.4764,0.4706,0.4531,0.4305,0.4173,0.4202,0.4226,0.4146,0.4278,0.4559,0.4728,0.4337,0.4382,0.4577,0.4208,0.4361,0.3989,0.4356,0.3793,0.3879,0.3954,0.3642,0.3124,0.3118,0.3112,0.3106,0,0,0.4541,0.4328,0.4247,0.3964,0.3875,0.372,0.373,0.3695,0.3791,0.3747,0.3783,0.4089,0.4391,0.3659,0.3613,0.3353,0.3547,0.3169,0.5025,0.4439,0.4504,0.4692,0.4319,0,0,0,0,0]},{"header":{"parameterUnit":"m.s-1","parameterCategory":2,"la1":30.2991,"la2":30.254,"lo1":-89.0895,"lo2":-89.0444,"dy":0.0017,"dx":0.0017,"nx":28,"ny":28,"refTime":"2023-06-19T21:00:00:Z","depth":"2","parameterNumber":3,"parameterNumberName":"V-component_of_CURRENTS"},"data":[0,0,0,0,0,0,0,0,0,0,0,0,0,0,0,0,0,0,0,0,0,0,0,0,0,0,0,0,0,0,0,0,0,0,0,0,0,0,0,0,0,0,0,0,0,0,0,0,0,0,0,0,0,0,0,0,0,0,0.0646,0.0645,0,0.0592,0.0592,0.0591,0.0524,0.0523,0.0522,0.0521,0.0285,0.028,0.0275,0,0,0,0,0,0,0,0,0,0,0,0,0,0.0617,0.0618,0.0646,0.0645,0.0645,0.0592,0.0592,0.0591,0.0524,0.0523,0.0522,0.0521,0.0287,0.0281,0.0274,0,0,0,0,0,0,0,0,0,0,0,0,0,0.0601,0.0618,0.0646,0.0607,0.0603,0.0593,0.0591,0.059,0.0524,0.0523,0.0521,0.052,0.0289,0.0281,0.0273,0.0249,0,0,0.0248,0.0245,0,0,0,0,0,0,0,0,0.0602,0.0602,0.0613,0.0609,0.0605,0.0565,0.0495,0.0468,0.0524,0.0552,0.0521,0.052,0.0364,0.035,0.0342,0.0238,0.0228,0.0247,0.0242,0.0239,0.0237,0,0,0,0,0,0,0,0.0603,0.0603,0.0622,0.0613,0.0608,0.0567,0.0564,0.049,0.0461,0.0549,0.0545,0.0543,0.036,0.0351,0.0336,0.0224,0.0248,0.024,0.0235,0.0232,-0.0007,-0.0008,0,0,0,0,0,0,0.062,0.0605,0.0624,0.0621,0.0603,0.0569,0.0565,0.0578,0.0465,0.0449,0.0544,0.054,0.0365,0.0346,0.0327,0.0262,0.0239,0.0231,0.0227,-0.0005,-0.0007,-0.0009,0,0,0,0,0,0,0.062,0.0623,0.0626,0.0612,0.061,0.0572,0.0585,0.0577,0.0572,0.0464,0.0443,0.0548,0.0363,0.0338,0.0268,0.0253,0.0228,0.022,-0.0004,-0.0006,-0.0008,0.0149,0,0,0,0,0,0,0.062,0.0624,0.0635,0.0614,0.0612,0.0639,0.0587,0.0577,0.0573,0.0567,0.046,0.0437,0.0361,0.0281,0.026,0.0241,0.0214,-0.0002,-0.0005,-0.0007,0.0145,0.0152,0.0158,0,0,0,0,0,0.0619,0.0655,0.0636,0.0638,0.063,0.0641,0.0637,0.0601,0.0575,0.0588,0.0507,0.044,0.0247,0.0276,0.0251,0.0228,-0.0,-0.0004,-0.0007,0.0143,0.0151,0.0158,0,0,0,0,0,0,0.0656,0.0651,0.063,0.0663,0.0657,0.0631,0.0639,0.0616,0.0567,0.0553,0.0445,0.0418,0.0341,0.0262,0.0295,0.0143,0.0102,0.0094,0.0224,0.0231,0.0237,0.0283,0.0207,0,0,0,0,0,0.0668,0.0687,0.0675,0.0701,0.0702,0.0671,0.0668,0.0652,0.0609,0.0588,0.0518,0.0413,0.0309,0.0258,0.0168,0.0105,0.005,0.0061,0.0067,0.0074,0.0089,0.0011,0.0014,-0.0019,-0.0019,-0.0019,0,0,0.0689,0.0688,0.0699,0.0708,0.0696,0.0724,0.0666,0.0681,0.0686,0.0566,0.0546,0.0444,0.0297,0.0222,0.0178,0.0156,0.0053,0.007,0.0077,0.0088,0.0009,0.0013,0.0016,-0.0021,-0.0021,-0.0021,0,0,0.0755,0.0742,0.0783,0.0792,0.0792,0.0769,0.0781,0.0767,0.0736,0.0713,0.06,0.0504,0.0384,0.0271,0.0192,0.0175,0.0095,0.0126,0.0196,0.0121,0.0125,0.0128,0.008,0.0077,0.0126,0.0126,0.0126,0,0.0779,0.0836,0.0798,0.0848,0.0857,0.0799,0.085,0.0817,0.0781,0.0739,0.0724,0.0515,0.0404,0.0265,0.0256,0.0193,0.0152,0.0192,0.0137,0.0138,0.0138,0.0087,0.0082,0.0133,0.0132,0.0132,0.0131,0,0.0883,0.0929,0.0959,0.0991,0.0987,0.1031,0.0981,0.0956,0.091,0.0866,0.0754,0.0618,0.0487,0.042,0.0337,0.0248,0.0222,0.0167,0.0139,0.0152,0.0096,0.0088,0.0143,0.0141,0.0139,0.0137,0,0,0.0961,0.102,0.1035,0.1059,0.1073,0.1073,0.106,0.1016,0.0994,0.0924,0.0886,0.0696,0.0624,0.0528,0.0397,0.0327,0.0292,0.0265,0.0258,0.0257,0.0157,0.017,0.0161,0.0242,0.0241,0.024,0.0127,0,0.1062,0.118,0.1166,0.1244,0.13,0.1219,0.1208,0.1143,0.1081,0.1034,0.0858,0.0787,0.066,0.061,0.0513,0.0348,0.0275,0.0329,0.0109,0.0103,0.0145,0.0154,0.0072,-0.0033,0.0118,0.0117,0.0116,0,0.118,0.1247,0.136,0.1362,0.1369,0.1387,0.1321,0.1305,0.1196,0.1152,0.1042,0.0932,0.0783,0.0706,0.0448,0.0497,0.0344,0.0225,0.0216,0.0171,0.01,-0.0032,-0.0054,0.0101,0.0102,0.0103,0.0104,0,0.1265,0.1357,0.1439,0.1464,0.1476,0.146,0.143,0.1346,0.1343,0.1246,0.1274,0.1048,0.0995,0.0762,0.0517,0.0486,0.0276,0.0187,0.0048,0.0047,-0.0096,-0.0107,0.0019,0.0019,0.002,0.002,0.002,0,0.138,0.144,0.1491,0.1548,0.16,0.1555,0.1575,0.1514,0.149,0.1541,0.1359,0.1371,0.102,0.0856,0.0584,0.032,0.0317,0.0074,0.0019,-0.0044,-0.0048,-0.0001,-0.0002,0.0016,0.0017,0.0017,0.0018,0,0.1462,0.1504,0.1614,0.166,0.1659,0.1699,0.1703,0.172,0.1706,0.1786,0.1786,0.1625,0.1426,0.1082,0.0719,0.0452,0.0163,0.0065,0.0037,-0.0018,-0.004,-0.0032,-0.0121,-0.0121,-0.0122,-0.0122,-0.0122,0,0.15,0.1585,0.1711,0.1746,0.177,0.1814,0.1838,0.1832,0.1915,0.196,0.2041,0.188,0.1827,0.1301,0.0721,0.0246,0.0229,-0.0089,-0.0183,-0.0009,-0.0054,-0.0046,-0.0038,-0.0323,-0.0325,-0.0327,-0.0328,0,0.1582,0.1652,0.1755,0.186,0.1914,0.2007,0.2084,0.2205,0.2258,0.2374,0.2502,0.2467,0.1928,0.1376,0.0709,0.0355,-0.0028,-0.013,0.003,-0.0244,-0.0201,-0.0244,-0.023,-0.0342,-0.0341,-0.034,-0.0339,-0.0338,0.1633,0.1735,0.1861,0.195,0.2043,0.2215,0.2355,0.2488,0.2702,0.2912,0.2804,0.2732,0.2104,0.1189,0.0562,-0.0137,-0.0083,-0.0321,-0.0318,-0.0312,-0.0283,-0.024,-0.0383,-0.0382,-0.0381,-0.038,-0.038,0,0.1674,0.1782,0.1878,0.2057,0.2205,0.2245,0.2516,0.2674,0.2988,0.3113,0.3185,0.2535,0.1903,0.1225,0.0129,-0.0435,-0.0542,-0.0571,-0.0608,-0.0591,-0.0577,-0.0563,-0.0738,-0.0739,-0.0741,-0.0743,0,0,0.1676,0.1806,0.1876,0.214,0.2292,0.2588,0.2799,0.3042,0.3191,0.3287,0.3212,0.2982,0.2125,0.1301,0.0464,-0.0136,-0.0209,-0.0252,0.0081,0.0149,0.0171,-0.0407,-0.0362,0,0,0,0,0]}],[{"header":{"parameterUnit":"m.s-1","parameterCategory":2,"la1":30.2991,"la2":30.254,"lo1":-89.0895,"lo2":-89.0444,"dy":0.0017,"dx":0.0017,"nx":28,"ny":28,"refTime":"2023-06-19T21:00:00:Z","depth":"4","parameterNumber":2,"parameterNumberName":"U-component_of_CURRENTS"},"data":[0,0,0,0,0,0,0,0,0,0,0,0,0,0,0,0,0,0,0,0,0,0,0,0,0,0,0,0,0,0,0,0,0,0,0,0,0,0,0,0,0,0,0,0,0,0,0,0,0,0,0,0,0,0,0,0,0,0,0.2316,0.2315,0,0.2258,0.2258,0.2257,0.2292,0.2294,0.2295,0.2296,0.2571,0.2577,0.2583,0,0,0,0,0,0,0,0,0,0,0,0,0,0.2354,0.2354,0.2316,0.2315,0.2314,0.2258,0.2258,0.2257,0.2292,0.2294,0.2295,0.2297,0.2569,0.2576,0.2583,0,0,0,0,0,0,0,0,0,0,0,0,0,0.2324,0.2354,0.2316,0.2322,0.2322,0.2258,0.2258,0.2257,0.2292,0.2294,0.2296,0.2298,0.2567,0.2575,0.2584,0.26,0,0,0.2612,0.2616,0,0,0,0,0,0,0,0,0.2326,0.2324,0.2322,0.2321,0.2321,0.2282,0.2371,0.2387,0.2291,0.2307,0.2296,0.2299,0.2501,0.2516,0.2501,0.2613,0.2624,0.2613,0.2618,0.2622,0.2625,0,0,0,0,0,0,0,0.2328,0.2325,0.2297,0.2321,0.232,0.2292,0.2292,0.2373,0.2402,0.2306,0.2307,0.2295,0.2504,0.2491,0.2508,0.2628,0.2613,0.2621,0.2626,0.263,0.3095,0.3102,0,0,0,0,0,0,0.2331,0.2328,0.2298,0.2294,0.2325,0.229,0.2289,0.2295,0.2394,0.2407,0.2293,0.2296,0.2475,0.2498,0.2519,0.2752,0.2622,0.2631,0.2636,0.3089,0.3097,0.3104,0,0,0,0,0,0,0.2333,0.233,0.2301,0.2306,0.23,0.2288,0.2293,0.2293,0.2333,0.238,0.2401,0.234,0.2477,0.2506,0.2653,0.2756,0.2635,0.2643,0.308,0.3091,0.3101,0.3088,0,0,0,0,0,0,0.2335,0.2331,0.2379,0.2307,0.23,0.2294,0.2291,0.229,0.2317,0.2323,0.2427,0.245,0.2481,0.264,0.2662,0.2767,0.265,0.3072,0.3085,0.3097,0.308,0.3096,0.3111,0,0,0,0,0,0.2336,0.2376,0.2382,0.238,0.2352,0.2295,0.229,0.2288,0.2318,0.2335,0.2429,0.245,0.2742,0.265,0.2676,0.2785,0.3065,0.3081,0.3096,0.3072,0.3093,0.3111,0,0,0,0,0,0,0.2401,0.238,0.2386,0.2416,0.2375,0.23,0.2334,0.2319,0.2395,0.2447,0.2495,0.2525,0.2706,0.2763,0.2661,0.2975,0.2926,0.2947,0.29,0.292,0.2935,0.2918,0.2658,0,0,0,0,0,0.2438,0.2482,0.2419,0.2448,0.2444,0.2402,0.2398,0.2387,0.2414,0.2448,0.2509,0.2641,0.2779,0.2859,0.2969,0.311,0.3139,0.3224,0.3239,0.3251,0.3267,0.3414,0.3441,0.3156,0.3156,0.3155,0,0,0.2462,0.2465,0.2485,0.2468,0.2455,0.2442,0.2409,0.2416,0.2441,0.2476,0.2586,0.2687,0.2833,0.2994,0.3086,0.3058,0.3341,0.3271,0.3278,0.3288,0.3433,0.346,0.3483,0.3166,0.3164,0.3163,0,0,0.2488,0.2546,0.257,0.2553,0.2541,0.2521,0.2535,0.2496,0.2538,0.2615,0.2697,0.2843,0.3006,0.3122,0.321,0.3392,0.3415,0.3479,0.3537,0.368,0.3701,0.3721,0.3722,0.3742,0.3488,0.3488,0.3488,0,0.252,0.2541,0.2561,0.2561,0.2582,0.2565,0.2578,0.2595,0.2613,0.2713,0.2674,0.2992,0.3064,0.3323,0.3371,0.3419,0.3469,0.3424,0.3689,0.371,0.373,0.3727,0.375,0.349,0.3489,0.3489,0.3489,0,0.2523,0.2561,0.2577,0.2601,0.2632,0.264,0.266,0.2725,0.278,0.2826,0.3067,0.314,0.335,0.34,0.342,0.3664,0.3635,0.3671,0.3604,0.3756,0.3745,0.3768,0.3491,0.3491,0.3491,0.349,0,0,0.2484,0.257,0.2571,0.2632,0.2668,0.2695,0.2795,0.2906,0.3036,0.3093,0.3275,0.3456,0.3534,0.3641,0.3712,0.3792,0.3904,0.3789,0.3796,0.3722,0.4143,0.3855,0.385,0.4,0.4006,0.4011,0.4045,0,0.2465,0.2514,0.2578,0.2663,0.2688,0.279,0.2885,0.3022,0.3142,0.3307,0.3462,0.3663,0.3626,0.3742,0.3827,0.3929,0.3982,0.3886,0.4069,0.4071,0.3743,0.3876,0.4031,0.4062,0.4068,0.4071,0.4074,0,0.2392,0.2459,0.2537,0.2738,0.2775,0.2865,0.3118,0.3211,0.3458,0.3554,0.3779,0.3895,0.4094,0.3996,0.4205,0.4161,0.4157,0.4159,0.4163,0.392,0.3829,0.3912,0.4116,0.4113,0.411,0.4107,0.4104,0,0.2303,0.2439,0.2544,0.2585,0.2775,0.2931,0.3093,0.333,0.3456,0.3764,0.3866,0.4141,0.4262,0.436,0.4358,0.4334,0.4491,0.4475,0.4192,0.4167,0.4409,0.4389,0.4594,0.4594,0.4594,0.4594,0.4594,0,0.2209,0.2295,0.2542,0.2579,0.2789,0.2967,0.3214,0.3391,0.3634,0.3809,0.4028,0.4142,0.4365,0.4468,0.4449,0.437,0.4593,0.4208,0.4189,0.4396,0.4375,0.4418,0.4398,0.4595,0.4595,0.4594,0.4594,0,0.2044,0.218,0.2312,0.2597,0.2725,0.2893,0.325,0.3394,0.3639,0.3854,0.3959,0.4211,0.4361,0.4467,0.4605,0.4446,0.4426,0.433,0.4472,0.4459,0.3966,0.3946,0.404,0.4031,0.4023,0.4017,0.4011,0,0.1979,0.2,0.23,0.2436,0.2596,0.2878,0.3037,0.3348,0.3479,0.3841,0.3899,0.4163,0.4296,0.4218,0.4368,0.4338,0.4272,0.419,0.4124,0.3953,0.3927,0.3919,0.391,0.3999,0.3997,0.3995,0.3993,0,0.1826,0.1921,0.2049,0.2304,0.2531,0.2724,0.301,0.3065,0.3397,0.3638,0.376,0.3849,0.3983,0.4065,0.406,0.4031,0.4227,0.4108,0.4123,0.406,0.3904,0.3884,0.3884,0.3966,0.397,0.3972,0.3974,0,0.1745,0.1795,0.1967,0.2203,0.2419,0.2539,0.2709,0.289,0.3038,0.3422,0.3461,0.3718,0.3968,0.3902,0.3907,0.3865,0.3803,0.3634,0.3673,0.3704,0.3579,0.333,0.3213,0,0,0,0,0,0.1664,0.1718,0.1893,0.211,0.2277,0.2411,0.2665,0.2813,0.3113,0.3109,0.3278,0.3394,0.3461,0.3575,0.3463,0.3746,0.3805,0.3593,0.3628,0.3817,0.3848,0.3731,0,0,0,0,0,0,0.1644,0.1733,0.1825,0.1941,0.206,0.2222,0.2355,0.2563,0.2567,0.2886,0.2936,0.3163,0.327,0.3499,0.3397,0.3427,0.3366,0.3747,0.3737,0.3799,0.3827,0.3852,0.3743,0,0,0,0,0]},{"header":{"parameterUnit":"m.s-1","parameterCategory":2,"la1":30.2991,"la2":30.254,"lo1":-89.0895,"lo2":-89.0444,"dy":0.0017,"dx":0.0017,"nx":28,"ny":28,"refTime":"2023-06-19T21:00:00:Z","depth":"4","parameterNumber":3,"parameterNumberName":"V-component_of_CURRENTS"},"data":[0,0,0,0,0,0,0,0,0,0,0,0,0,0,0,0,0,0,0,0,0,0,0,0,0,0,0,0,0,0,0,0,0,0,0,0,0,0,0,0,0,0,0,0,0,0,0,0,0,0,0,0,0,0,0,0,0,0,0.0235,0.0234,0,0.0152,0.0151,0.015,0.0111,0.0111,0.0111,0.0111,0.0009,0.0006,0.0003,0,0,0,0,0,0,0,0,0,0,0,0,0,0.0256,0.0257,0.0235,0.0234,0.0233,0.0152,0.0151,0.015,0.0111,0.0111,0.0111,0.0111,0.001,0.0007,0.0003,0,0,0,0,0,0,0,0,0,0,0,0,0,0.0217,0.0257,0.0236,0.0205,0.0202,0.0153,0.0151,0.0149,0.0111,0.0111,0.0111,0.0111,0.0011,0.0007,0.0003,-0.0028,0,0,-0.001,-0.0012,0,0,0,0,0,0,0,0,0.0219,0.0216,0.021,0.0207,0.0203,0.0143,0.0121,0.0089,0.0111,0.0144,0.0111,0.0111,0.0053,0.0045,0.0027,-0.0033,-0.0038,-0.0011,-0.0013,-0.0015,-0.0016,0,0,0,0,0,0,0,0.0222,0.0219,0.0201,0.0209,0.0205,0.016,0.0155,0.0114,0.0097,0.0141,0.0138,0.0131,0.005,0.0032,0.0025,-0.0039,-0.0011,-0.0015,-0.0017,-0.0019,-0.0139,-0.014,0,0,0,0,0,0,0.024,0.0222,0.0204,0.0199,0.0213,0.016,0.0155,0.0161,0.0097,0.0088,0.0131,0.0129,0.0039,0.003,0.0021,-0.0,-0.0015,-0.0019,-0.0022,-0.0139,-0.014,-0.014,0,0,0,0,0,0,0.0241,0.024,0.0207,0.0208,0.0201,0.016,0.0167,0.0159,0.0151,0.009,0.0081,0.0131,0.0039,0.0027,-0.0005,-0.0005,-0.0021,-0.0025,-0.0138,-0.0139,-0.014,-0.0055,0,0,0,0,0,0,0.0242,0.0241,0.0253,0.021,0.0202,0.0192,0.0167,0.0158,0.0146,0.0143,0.0087,0.0077,0.0038,0.0002,-0.0009,-0.0011,-0.0028,-0.0137,-0.0139,-0.014,-0.0057,-0.0053,-0.005,0,0,0,0,0,0.0243,0.0267,0.0254,0.0252,0.022,0.0192,0.0184,0.0153,0.0146,0.0146,0.0108,0.008,-0.0014,-0.0001,-0.0014,-0.0018,-0.0137,-0.0138,-0.014,-0.0059,-0.0054,-0.005,0,0,0,0,0,0,0.028,0.0263,0.0249,0.0266,0.0235,0.0186,0.0187,0.0163,0.0132,0.0136,0.0078,0.0066,0.0032,-0.0007,0.0009,-0.006,-0.0084,-0.0087,-0.0018,-0.0014,-0.001,0.0027,-0.0032,0,0,0,0,0,0.0294,0.031,0.0274,0.0285,0.0277,0.0233,0.0219,0.0199,0.0164,0.0152,0.0109,0.006,0.0013,-0.0007,-0.0055,-0.0084,-0.0119,-0.01,-0.0096,-0.0093,-0.0073,-0.0119,-0.0116,-0.0145,-0.0145,-0.0145,0,0,0.031,0.0303,0.0311,0.0294,0.027,0.0267,0.0226,0.0217,0.0208,0.0145,0.0125,0.0073,0.0007,-0.0029,-0.0048,-0.0057,-0.0108,-0.0094,-0.009,-0.0073,-0.012,-0.0117,-0.0114,-0.0146,-0.0146,-0.0146,0,0,0.0349,0.0346,0.0369,0.0355,0.0331,0.0301,0.0305,0.0262,0.0239,0.021,0.0158,0.0113,0.0045,-0.0003,-0.0036,-0.0042,-0.0088,-0.0064,-0.001,-0.0054,-0.0051,-0.0049,-0.0101,-0.0105,-0.006,-0.0059,-0.0059,0,0.0366,0.0395,0.0368,0.0383,0.0384,0.0325,0.0345,0.0306,0.0255,0.0252,0.0218,0.0121,0.0056,0.0018,0.0008,-0.0031,-0.0061,-0.0015,-0.0045,-0.0044,-0.0043,-0.0097,-0.0102,-0.0056,-0.0056,-0.0056,-0.0057,0,0.0418,0.0441,0.0455,0.0459,0.0451,0.0461,0.0412,0.0393,0.0357,0.0328,0.0285,0.0189,0.0144,0.0095,0.0048,0.0019,-0.0007,-0.0034,-0.0045,-0.0034,-0.0094,-0.01,-0.005,-0.0051,-0.0053,-0.0053,0,0,0.0456,0.0489,0.0493,0.0524,0.0501,0.0508,0.0489,0.0473,0.0491,0.0408,0.0417,0.0301,0.0266,0.0224,0.0146,0.009,0.0046,0.0041,0.0037,0.0009,-0.005,-0.009,-0.0101,0.0025,0.0024,0.0024,-0.0098,0,0.0503,0.0567,0.0564,0.0621,0.065,0.0611,0.0606,0.0585,0.0552,0.054,0.0435,0.0412,0.0309,0.0294,0.022,0.0097,0.0037,0.0081,-0.0074,-0.0079,-0.0099,-0.0107,0.0023,-0.0102,-0.0104,-0.0105,-0.0106,0,0.0546,0.0593,0.0668,0.0724,0.0736,0.0764,0.0784,0.0777,0.0736,0.0709,0.0664,0.059,0.0492,0.0403,0.0207,0.0248,0.0115,0.0004,-0.0004,-0.0068,-0.0129,-0.0118,-0.0117,-0.0116,-0.0116,-0.0115,-0.0114,0,0.0588,0.0662,0.0738,0.0757,0.0801,0.0843,0.0865,0.085,0.0872,0.0841,0.0852,0.0727,0.0674,0.0493,0.025,0.0244,0.0027,-0.001,-0.0177,-0.0182,-0.0144,-0.0145,-0.014,-0.0139,-0.0139,-0.0139,-0.0138,0,0.0631,0.0693,0.0784,0.083,0.0939,0.0941,0.1037,0.1029,0.1041,0.1099,0.0968,0.0957,0.0699,0.0536,0.0306,0.0044,0.007,-0.0163,-0.0212,-0.0111,-0.0107,-0.015,-0.0149,-0.0143,-0.0142,-0.0141,-0.0141,0,0.0656,0.0703,0.0811,0.0916,0.0965,0.1051,0.1165,0.1224,0.1219,0.1286,0.1285,0.1142,0.0932,0.064,0.0337,0.0133,-0.0126,-0.0228,-0.01,-0.014,-0.032,-0.0314,-0.0407,-0.0409,-0.0411,-0.0413,-0.0414,0,0.0673,0.073,0.0894,0.0979,0.1047,0.1177,0.126,0.1309,0.1383,0.1396,0.1432,0.1264,0.1127,0.0681,0.0348,-0.0095,-0.0171,-0.0308,-0.0321,-0.0307,-0.0346,-0.0336,-0.0328,-0.0417,-0.0418,-0.0418,-0.0419,0,0.0716,0.0778,0.0881,0.1057,0.119,0.1331,0.1471,0.1535,0.1596,0.1593,0.1572,0.1338,0.1089,0.0711,0.0355,0.0032,-0.022,-0.033,-0.0328,-0.0341,-0.0321,-0.0355,-0.0345,-0.0426,-0.0425,-0.0424,-0.0424,0,0.0759,0.084,0.0978,0.1136,0.1303,0.1458,0.152,0.162,0.1688,0.1709,0.17,0.1423,0.1271,0.0775,0.0449,0.012,0.0029,-0.0081,-0.0094,-0.0091,0.0014,0.0087,0.0075,0,0,0,0,0,0.0804,0.0897,0.1039,0.123,0.1392,0.1498,0.1648,0.1692,0.1763,0.1776,0.1748,0.152,0.105,0.0839,0.0509,0.0365,-0.0063,-0.004,-0.0205,-0.0464,-0.0456,-0.0393,0,0,0,0,0,0,0.083,0.0971,0.1045,0.1278,0.1418,0.1613,0.1717,0.1762,0.1764,0.1779,0.1539,0.1432,0.0967,0.126,0.051,0.0405,0.025,-0.0258,-0.0266,-0.0468,-0.0461,-0.0455,-0.0387,0,0,0,0,0]}]]